EN

Hourly Weather Lagoa Nova

Today, 3 August, Tuesday

Time Temperature Precipitation Wind Pressure Humidity
00:00 +21°C° 0 mm 7 mps 713 mmHg 81%
01:00 +20°C° 0 mm 6 mps 713 mmHg 83%
02:00 +20°C° 0 mm 6 mps 712 mmHg 84%
03:00 +20°C° 0 mm 6 mps 712 mmHg 86%
04:00 +19°C° 0 mm 6 mps 712 mmHg 87%
05:00 +19°C° 0 mm 5 mps 712 mmHg 86%
06:00 +20°C° 0 mm 5 mps 712 mmHg 85%
07:00 +20°C° 0 mm 5 mps 712 mmHg 83%
08:00 +22°C° 0 mm 5 mps 713 mmHg 72%
09:00 +24°C° 0 mm 6 mps 713 mmHg 61%
10:00 +28°C° 0 mm 7 mps 714 mmHg 50%
11:00 +29°C° 0 mm 7 mps 714 mmHg 45%
12:00 +32°C° 0 mm 7 mps 713 mmHg 40%
13:00 +33°C° 0 mm 6 mps 713 mmHg 36%
14:00 +32°C° 0 mm 6 mps 712 mmHg 39%
15:00 +30°C° 0 mm 6 mps 712 mmHg 42%
16:00 +29°C° 0 mm 6 mps 711 mmHg 45%
17:00 +28°C° 0 mm 7 mps 712 mmHg 51%
18:00 +27°C° 0 mm 7 mps 712 mmHg 57%
19:00 +24°C° 0 mm 7 mps 712 mmHg 63%
20:00 +24°C° 0 mm 7 mps 712 mmHg 67%
21:00 +23°C° 0 mm 7 mps 713 mmHg 70%
22:00 +22°C° 0 mm 6 mps 713 mmHg 74%
23:00 +22°C° 0 mm 6 mps 713 mmHg 75%

Tomorrow, 4 August, Wednesday

Time Temperature Precipitation Wind Pressure Humidity
00:00 +21°C° 0 mm 5 mps 713 mmHg 77%
01:00 +21°C° 0 mm 5 mps 713 mmHg 79%
02:00 +20°C° 0 mm 4 mps 713 mmHg 80%
03:00 +20°C° 0 mm 4 mps 712 mmHg 82%
04:00 +19°C° 0 mm 4 mps 712 mmHg 83%
05:00 +19°C° 0 mm 4 mps 712 mmHg 84%
06:00 +19°C° 0 mm 4 mps 713 mmHg 84%
07:00 +19°C° 0 mm 4 mps 713 mmHg 84%
08:00 +22°C° 0 mm 5 mps 713 mmHg 73%
09:00 +24°C° 0 mm 6 mps 714 mmHg 61%
10:00 +27°C° 0 mm 7 mps 715 mmHg 50%
11:00 +29°C° 0 mm 7 mps 714 mmHg 44%
12:00 +32°C° 0 mm 6 mps 714 mmHg 39%
13:00 +34°C° 0 mm 6 mps 714 mmHg 33%
14:00 +34°C° 0 mm 5 mps 713 mmHg 30%
15:00 +35°C° 0 mm 5 mps 712 mmHg 28%
16:00 +35°C° 0 mm 5 mps 712 mmHg 25%
17:00 +33°C° 0 mm 6 mps 712 mmHg 35%
18:00 +29°C° 0 mm 7 mps 712 mmHg 44%
19:00 +26°C° 0 mm 8 mps 712 mmHg 54%
20:00 +24°C° 0 mm 8 mps 713 mmHg 59%
21:00 +23°C° 0 mm 7 mps 713 mmHg 64%
22:00 +22°C° 0 mm 7 mps 714 mmHg 69%
23:00 +21°C° 0 mm 6 mps 714 mmHg 71%

Day after tomorrow, 5 August, Thursday

Time Temperature Precipitation Wind Pressure Humidity
00:00 +21°C° 0 mm 6 mps 714 mmHg 73%
01:00 +20°C° 0 mm 5 mps 714 mmHg 74%
02:00 +20°C° 0 mm 5 mps 713 mmHg 75%
03:00 +19°C° 0 mm 5 mps 713 mmHg 76%
04:00 +19°C° 0 mm 4 mps 713 mmHg 77%
05:00 +19°C° 0 mm 4 mps 713 mmHg 78%
06:00 +19°C° 0 mm 4 mps 714 mmHg 79%
07:00 +19°C° 0 mm 4 mps 714 mmHg 79%
08:00 +21°C° 0 mm 5 mps 714 mmHg 69%
09:00 +24°C° 0 mm 6 mps 715 mmHg 59%
10:00 +28°C° 0 mm 7 mps 715 mmHg 48%
11:00 +29°C° 0 mm 7 mps 715 mmHg 44%
12:00 +32°C° 0 mm 7 mps 715 mmHg 39%
13:00 +34°C° 0 mm 7 mps 714 mmHg 35%
14:00 +33°C° 0 mm 7 mps 714 mmHg 38%
15:00 +32°C° 0 mm 6 mps 713 mmHg 41%
16:00 +30°C° 0 mm 6 mps 713 mmHg 44%
17:00 +28°C° 0 mm 7 mps 713 mmHg 51%
18:00 +27°C° 0 mm 7 mps 713 mmHg 58%
19:00 +24°C° 0 mm 7 mps 713 mmHg 65%
20:00 +23°C° 0 mm 8 mps 714 mmHg 69%
21:00 +22°C° 0 mm 8 mps 714 mmHg 73%
22:00 +22°C° 0 mm 8 mps 714 mmHg 76%
23:00 +21°C° 0 mm 8 mps 714 mmHg 77%

6 August, Friday

Time Temperature Precipitation Wind Pressure Humidity
00:00 +21°C° 0 mm 8 mps 714 mmHg 77%
01:00 +21°C° 0 mm 8 mps 714 mmHg 78%
02:00 +21°C° 0 mm 7 mps 713 mmHg 78%
03:00 +21°C° 0 mm 7 mps 713 mmHg 77%
04:00 +21°C° 0 mm 7 mps 713 mmHg 77%
05:00 +21°C° 0 mm 7 mps 713 mmHg 77%
06:00 +21°C° 0 mm 6 mps 714 mmHg 77%
07:00 +21°C° 0 mm 6 mps 714 mmHg 77%
08:00 +23°C° 0 mm 7 mps 715 mmHg 68%
09:00 +24°C° 0 mm 8 mps 715 mmHg 59%
10:00 +27°C° 0 mm 8 mps 715 mmHg 51%
11:00 +29°C° 0 mm 8 mps 715 mmHg 46%
12:00 +30°C° 0 mm 7 mps 715 mmHg 40%
13:00 +33°C° 0 mm 7 mps 714 mmHg 35%
14:00 +33°C° 0 mm 7 mps 714 mmHg 34%
15:00 +33°C° 0 mm 7 mps 713 mmHg 33%
16:00 +33°C° 0 mm 6 mps 713 mmHg 32%
17:00 +30°C° 0 mm 7 mps 713 mmHg 36%
18:00 +29°C° 0 mm 7 mps 713 mmHg 40%
19:00 +28°C° 0 mm 8 mps 713 mmHg 44%
20:00 +26°C° 0 mm 8 mps 714 mmHg 52%
21:00 +23°C° 0 mm 8 mps 714 mmHg 60%
22:00 +22°C° 0 mm 8 mps 714 mmHg 68%
23:00 +21°C° 0 mm 8 mps 714 mmHg 71%

7 August, Saturday

Time Temperature Precipitation Wind Pressure Humidity
00:00 +21°C° 0 mm 8 mps 714 mmHg 74%
01:00 +20°C° 0 mm 8 mps 713 mmHg 78%
02:00 +20°C° 0 mm 8 mps 713 mmHg 79%
03:00 +20°C° 0 mm 8 mps 713 mmHg 81%
04:00 +20°C° 0 mm 7 mps 712 mmHg 82%
05:00 +20°C° 0 mm 7 mps 713 mmHg 81%
06:00 +20°C° 0 mm 7 mps 713 mmHg 79%
07:00 +20°C° 0 mm 7 mps 713 mmHg 77%
08:00 +22°C° 0 mm 7 mps 714 mmHg 68%
09:00 +24°C° 0 mm 8 mps 714 mmHg 59%
10:00 +27°C° 0 mm 8 mps 715 mmHg 50%
11:00 +29°C° 0 mm 8 mps 714 mmHg 46%
12:00 +31°C° 0 mm 8 mps 714 mmHg 42%
13:00 +32°C° 0 mm 8 mps 714 mmHg 38%
14:00 +32°C° 0 mm 7 mps 713 mmHg 41%
15:00 +30°C° 0 mm 7 mps 713 mmHg 45%
16:00 +29°C° 0 mm 7 mps 712 mmHg 48%
17:00 +27°C° 0 mm 7 mps 713 mmHg 54%
18:00 +26°C° 0 mm 7 mps 713 mmHg 60%
19:00 +23°C° 0 mm 7 mps 714 mmHg 67%
20:00 +23°C° 0 mm 7 mps 714 mmHg 65%
21:00 +22°C° 0 mm 8 mps 714 mmHg 64%
22:00 +21°C° 0 mm 8 mps 714 mmHg 63%
23:00 +21°C° 0 mm 8 mps 714 mmHg 69%

8 August, Sunday

Time Temperature Precipitation Wind Pressure Humidity
00:00 +20°C° 0 mm 8 mps 714 mmHg 75%
01:00 +18°C° 0 mm 8 mps 714 mmHg 82%
02:00 +18°C° 0 mm 8 mps 713 mmHg 80%
03:00 +18°C° 0 mm 8 mps 713 mmHg 79%
04:00 +18°C° 0 mm 8 mps 713 mmHg 78%
05:00 +18°C° 0 mm 8 mps 713 mmHg 77%
06:00 +18°C° 0 mm 7 mps 713 mmHg 76%
07:00 +18°C° 0 mm 7 mps 713 mmHg 75%
08:00 +21°C° 0 mm 8 mps 714 mmHg 63%
09:00 +24°C° 0 mm 8 mps 714 mmHg 51%
10:00 +27°C° 0 mm 9 mps 715 mmHg 39%
11:00 +29°C° 0 mm 8 mps 715 mmHg 35%
12:00 +32°C° 0 mm 7 mps 714 mmHg 31%
13:00 +33°C° 0 mm 7 mps 714 mmHg 26%
14:00 +34°C° 0 mm 6 mps 713 mmHg 26%
15:00 +34°C° 0 mm 6 mps 713 mmHg 26%
16:00 +34°C° 0 mm 6 mps 712 mmHg 25%
17:00 +32°C° 0 mm 6 mps 713 mmHg 31%
18:00 +29°C° 0 mm 7 mps 713 mmHg 36%
19:00 +27°C° 0 mm 7 mps 713 mmHg 42%
20:00 +26°C° 0 mm 7 mps 713 mmHg 51%
21:00 +23°C° 0 mm 7 mps 714 mmHg 61%
22:00 +22°C° 0 mm 7 mps 714 mmHg 70%
23:00 +21°C° 0 mm 7 mps 714 mmHg 73%
Show more